Location: Gauravaram
(16.6995°N, 80.5417°E)
Time: 08:26:29
(UTC+00:00)

Centaur AC-42 - Pass Details

Date: 03 August 2024
Orbit: 638 x 36240 km, 20.0° (Epoch: 13 September)

Event Time Altitude Azimuth Distance (km) Brightness Sun altitude
Rises 15:12:32 0° 255° (WSW) 3,327 5.9 -27.8°
Reaches altitude 10° 15:14:02 10° 255° (WSW) 2,688 5.3 -28.1°
Maximum altitude 15:19:39 87° 165° (SSE) 1,825 3.7 -29.3°
Drops below altitude 10° 01:05:09 10° 124° (SE) 15,418 9.3 9.7°
Sets 01:15:36 0° 121° (ESE) 13,894 9.1 12.2°
